Fairbanks Ft. Wainwright, AK

6:38 AM AKDT on April 23, 2017 (GMT -0800)
Ladd Army Air Field

Weather History for PAFB - July, 2013

Change the Weather History Date:

Saturday, July 20, 2013

  Actual Average Record
Temperature  
Mean Temperature 58 °F -  
Max Temperature 63 °F 69 °F 78 °F (1998)
Min Temperature 53 °F 53 °F 46 °F (2011)
Degree Days  
Heating Degree Days 7    
Growing Degree Days 8 (Base 50)    
Moisture  
Dew Point 51 °F    
Average Humidity 80    
Maximum Humidity 94    
Minimum Humidity 56    
Precipitation  
Precipitation 0.11 in - - ()
Sea Level Pressure  
Sea Level Pressure 30.11 in    
Wind  
Wind Speed 12 mph (WSW)    
Max Wind Speed 18 mph    
Max Gust Speed 22 mph    
Visibility 10 miles    
Events Rain    
Averages and records for this station are not official NWS values.
T = Trace of Precipitation, MM = Missing Value Source: NWS Daily Summary

Daily Weather History Graph

Daily Weather History Graph

Search for Another Location

Airport or City:

Trip Planner

Search our weather history database for the weather conditions in past years. The results will help you decide how hot, cold, wet, or windy it might be!

Date:

Astronomy

Jul. 20, 2013 Rise Set
Actual Time 4:10 AM AKDT 11:40 PM AKDT
Civil Twilight 2:29 AM AKDT 1:24 AM AKDT
Nautical Twilight Sun does not set Sun does not set
Astronomical Twilight Sun does not set Sun does not set
Moon 9:37 PM AKDT (7/20) 2:08 AM AKDT (7/20)
Length of Visible Light 22h 55m
Length of Day
19h 30m
Waxing Gibbous, 94% of the Moon is Illuminated
Jul 20
Waxing Gibbous
Jul 22
Full
Jul 29
Last Quarter
Aug 6
New
Aug 14
First Quarter

Hourly Weather History & Observations

Time (AKDT) Temp. Dew Point Humidity Pressure Visibility Wind Dir Wind Speed Gust Speed Precip Events Conditions
12:56 AM 57.0 °F 51.1 °F 81% 30.12 in 10.0 mi WSW 10.4 mph - 0.00 in Rain Light Rain
1:26 AM 57.2 °F 51.8 °F 82% 30.11 in 10.0 mi WSW 9.2 mph - 0.01 in Rain Light Rain
1:56 AM 57.0 °F 52.0 °F 83% 30.12 in 10.0 mi WSW 12.7 mph - 0.01 in   Overcast
2:56 AM 55.9 °F 51.1 °F 84% 30.11 in 10.0 mi WSW 12.7 mph - N/A   Overcast
3:56 AM 55.9 °F 52.0 °F 87% 30.11 in 10.0 mi SW 12.7 mph - N/A   Overcast
4:56 AM 55.9 °F 52.0 °F 87% 30.10 in 10.0 mi WSW 11.5 mph - 0.00 in   Overcast
5:56 AM 55.9 °F 52.0 °F 87% 30.10 in 10.0 mi WSW 9.2 mph - 0.00 in Rain Light Rain
6:56 AM 55.0 °F 52.0 °F 89% 30.10 in 10.0 mi WSW 9.2 mph - 0.01 in Rain Light Rain
7:03 AM 55.4 °F 51.8 °F 88% 30.09 in 10.0 mi SW 11.5 mph - 0.00 in Rain Light Rain
7:17 AM 55.4 °F 51.8 °F 88% 30.09 in 10.0 mi WSW 9.2 mph - 0.00 in Rain Light Rain
7:48 AM 53.6 °F 51.8 °F 94% 30.09 in 6.2 mi WSW 11.5 mph - 0.03 in Rain Light Rain
7:56 AM 54.0 °F 52.0 °F 93% 30.10 in 6.0 mi WSW 12.7 mph - 0.04 in Rain Light Rain
8:09 AM 53.6 °F 51.8 °F 94% 30.09 in 6.2 mi WSW 12.7 mph - 0.01 in Rain Light Rain
8:16 AM 53.6 °F 51.8 °F 94% 30.09 in - WSW 11.5 mph - 0.03 in Rain Rain
8:20 AM 53.6 °F 51.8 °F 94% 30.09 in - WSW 11.5 mph - 0.03 in Rain Light Rain
8:56 AM 54.0 °F 51.1 °F 90% 30.11 in 10.0 mi West 13.8 mph - 0.04 in Rain Light Rain
9:56 AM 55.0 °F 51.1 °F 86% 30.11 in 10.0 mi West 13.8 mph - 0.00 in   Overcast
10:56 AM 55.0 °F 50.0 °F 83% 30.12 in 10.0 mi West 12.7 mph - N/A   Overcast
11:56 AM 55.9 °F 51.1 °F 84% 30.12 in 10.0 mi West 15.0 mph - 0.00 in   Overcast
12:08 PM 55.4 °F 51.8 °F 88% 30.11 in 10.0 mi West 15.0 mph - N/A   Overcast
12:56 PM 57.0 °F 51.1 °F 81% 30.12 in 10.0 mi WSW 15.0 mph - 0.00 in   Overcast
1:14 PM 57.2 °F 51.8 °F 82% 30.11 in 10.0 mi WSW 12.7 mph - N/A   Overcast
1:32 PM 57.2 °F 51.8 °F 82% 30.11 in 10.0 mi SW 16.1 mph - N/A   Overcast
1:42 PM 57.2 °F 51.8 °F 82% 30.11 in 6.2 mi WSW 16.1 mph - N/A   Overcast
1:53 PM 57.2 °F 50.0 °F 77% 30.11 in 10.0 mi SW 16.1 mph - N/A   Overcast
1:56 PM 57.9 °F 50.0 °F 75% 30.12 in 10.0 mi WSW 16.1 mph - N/A   Overcast
2:32 PM 59.0 °F 50.0 °F 72% 30.10 in 10.0 mi WSW 15.0 mph - N/A   Overcast
2:56 PM 60.1 °F 50.0 °F 69% 30.11 in 10.0 mi West 17.3 mph 21.9 mph N/A   Overcast
3:56 PM 63.0 °F 48.9 °F 60% 30.11 in 10.0 mi WSW 16.1 mph - 0.00 in   Overcast
4:56 PM 63.0 °F 48.0 °F 58% 30.10 in 10.0 mi West 18.4 mph - N/A   Overcast
5:56 PM 62.1 °F 53.1 °F 72% 30.11 in 10.0 mi West 8.1 mph - 0.01 in   Mostly Cloudy
6:56 PM 63.0 °F 46.9 °F 56% 30.10 in 10.0 mi West 17.3 mph - N/A   Scattered Clouds
7:56 PM 63.0 °F 50.0 °F 63% 30.10 in 10.0 mi West 11.5 mph - N/A   Mostly Cloudy
8:56 PM 62.1 °F 48.0 °F 60% 30.10 in 10.0 mi West 12.7 mph - N/A   Overcast
9:56 PM 61.0 °F 48.0 °F 62% 30.10 in 10.0 mi West 11.5 mph - N/A   Overcast
10:56 PM 60.1 °F 48.9 °F 67% 30.11 in 10.0 mi WSW 9.2 mph - N/A   Overcast
11:56 PM 59.0 °F 48.9 °F 69% 30.11 in 10.0 mi WSW 8.1 mph - N/A   Overcast